TimeCST,TemperatureF,Dew PointF,Humidity,Sea Level PressureIn,VisibilityMPH,Wind Direction,Wind SpeedMPH,Gust SpeedMPH,PrecipitationIn,Events,Conditions,WindDirDegrees,DateUTC
12:53 AM,32.0,28.9,88,30.00,10.0,South,4.6,-,N/A,,Overcast,180,2012-12-28 06:53:00
1:39 AM,32.0,28.4,87,29.96,10.0,South,5.8,-,N/A,,Overcast,180,2012-12-28 07:39:00
1:53 AM,32.0,28.9,88,29.99,10.0,SSW,6.9,-,N/A,,Overcast,200,2012-12-28 07:53:00
2:53 AM,32.0,28.9,88,30.00,10.0,South,6.9,-,N/A,,Overcast,190,2012-12-28 08:53:00
3:53 AM,33.1,28.9,85,29.99,10.0,Calm,Calm,-,N/A,,Overcast,0,2012-12-28 09:53:00
4:10 AM,33.8,28.4,81,29.95,10.0,Calm,Calm,-,N/A,,Overcast,0,2012-12-28 10:10:00
4:53 AM,33.1,28.9,85,29.98,10.0,Calm,Calm,-,N/A,,Overcast,0,2012-12-28 10:53:00
5:53 AM,33.1,28.9,85,29.97,10.0,Calm,Calm,-,N/A,,Overcast,0,2012-12-28 11:53:00
6:53 AM,33.1,28.9,85,29.96,10.0,Calm,Calm,-,N/A,,Overcast,0,2012-12-28 12:53:00
7:36 AM,33.8,28.4,81,29.93,10.0,Calm,Calm,-,N/A,,Overcast,0,2012-12-28 13:36:00
7:53 AM,33.1,30.0,89,29.98,10.0,SSE,3.5,-,N/A,,Overcast,160,2012-12-28 13:53:00
8:53 AM,34.0,30.0,85,29.97,8.0,Calm,Calm,-,N/A,,Overcast,0,2012-12-28 14:53:00
9:53 AM,35.1,30.9,85,29.97,9.0,North,5.8,-,N/A,,Overcast,350,2012-12-28 15:53:00
10:53 AM,36.0,30.0,79,29.98,6.0,Calm,Calm,-,N/A,,Haze,0,2012-12-28 16:53:00
11:53 AM,35.6,30.2,81,29.92,6.0,NW,6.9,-,N/A,,Haze,320,2012-12-28 17:53:00
12:53 PM,36.0,30.0,79,29.94,6.0,NW,10.4,-,N/A,,Haze,310,2012-12-28 18:53:00
1:53 PM,36.0,28.9,76,29.92,6.0,WNW,9.2,-,N/A,,Haze,300,2012-12-28 19:53:00
2:33 PM,35.6,26.6,70,29.90,7.0,NW,11.5,-,N/A,,Overcast,310,2012-12-28 20:33:00
2:50 PM,35.6,26.6,70,29.90,8.0,NW,11.5,-,N/A,,Overcast,320,2012-12-28 20:50:00
2:53 PM,35.1,26.1,70,29.93,7.0,NW,12.7,-,N/A,,Overcast,320,2012-12-28 20:53:00
3:02 PM,32.0,28.4,87,29.91,1.8,NW,12.7,-,0.00,Snow,Light Snow,310,2012-12-28 21:02:00
3:16 PM,30.2,28.4,93,29.91,0.5,NW,6.9,-,0.00,Fog-Snow,Snow,310,2012-12-28 21:16:00
3:53 PM,30.9,30.0,96,29.95,0.5,NW,8.1,-,0.02,Fog-Snow,Snow,310,2012-12-28 21:53:00
4:53 PM,30.9,30.0,96,29.96,1.2,NW,10.4,-,0.02,Snow,Light Snow,320,2012-12-28 22:53:00
5:24 PM,30.2,28.4,93,29.94,3.0,NW,10.4,-,0.00,,Overcast,320,2012-12-28 23:24:00
5:53 PM,30.9,28.9,92,29.99,6.0,NW,5.8,-,0.00,,Overcast,310,2012-12-28 23:53:00
6:53 PM,30.9,28.0,89,30.01,7.0,WNW,9.2,-,N/A,,Overcast,300,2012-12-29 00:53:00
7:53 PM,30.0,25.0,82,30.02,9.0,NW,10.4,-,N/A,,Overcast,310,2012-12-29 01:53:00
8:53 PM,30.0,25.0,82,30.04,9.0,NW,6.9,-,N/A,,Overcast,310,2012-12-29 02:53:00
9:53 PM,28.9,23.0,78,30.06,9.0,WNW,10.4,-,N/A,,Overcast,300,2012-12-29 03:53:00
10:53 PM,26.1,17.1,69,30.09,10.0,NW,13.8,20.7,N/A,,Mostly Cloudy,320,2012-12-29 04:53:00
11:08 PM,24.8,15.8,69,30.06,10.0,NW,12.7,-,N/A,,Mostly Cloudy,320,2012-12-29 05:08:00
11:53 PM,23.0,15.1,72,30.11,10.0,WNW,8.1,-,N/A,,Clear,300,2012-12-29 05:53:00